Regional Weather Roundup
Issued by NWS

Home | Current Version | Previous Version | Graphics & Text | Print | Product List | Glossary On
Versions: 1 2 3 4 5 6 7 8 9 10 11 12 13 14 15 16 17 18 19 20 21 22 23 24 25 26 27 28 29 30 31 32 33 34 35 36 37 38 39 40 41 42 43 44 45 46 47 48 49 50
000
ASUS43 KDTX 191101
RWRMI
MICHIGAN HOURLY REGIONAL WEATHER ROUNDUP
NATIONAL WEATHER SERVICE DETROIT/PONTIAC MI
700 AM EDT TUE SEP 19 2017

NOTE: "FAIR" INDICATES FEW OR NO CLOUDS BELOW 12,000 FEET WITH NO
SIGNIFICANT WEATHER AND/OR OBSTRUCTION TO VISIBILITY.

MIZ047>049-052>055-059>063-066>070-074>076-081>083-191200-
SOUTHEAST LOWER MICHIGAN

CITY           SKY/WX    TMP DP  RH WIND       PRES   REMARKS
ADRIAN         CLOUDY    63  60  90 E9        29.99F
ALMA           CLOUDY    54  52  94 CALM      30.03S
ANN ARBOR      CLOUDY    63  60  90 NE5       29.99S
BAD AXE        PTCLDY    52  51  95 CALM      30.04F
CARO           CLOUDY    54  52  93 CALM      30.02F
DETROIT CITY   CLOUDY    63  61  93 N5        30.00S
DETROIT        CLOUDY    64  61  90 NE6       30.00S
FLINT          CLOUDY    57  54  89 NE5       30.02S
GROSSE ILE     CLOUDY    64  63  94 CALM      29.98S
HILLSDALE      CLOUDY    63  61  94 E6        29.99R FOG
HOWELL         CLOUDY    58  55  88 N3        30.00F

CITY           SKY/WX    TMP DP  RH WIND       PRES   REMARKS
JACKSON        CLOUDY    64  60  87 NE5       29.99S FOG
LAMBERTVILLE   CLOUDY    65  63  91 CALM      29.98S FOG
LANSING        CLOUDY    60  52  74 E3        30.01S
LAPEER         CLOUDY    60  57  91 CALM      30.03R
MASON          CLOUDY    60  56  86 CALM      30.01R
MONROE         CLOUDY    65  63  91 CALM      29.98S
MT. CLEMENS    CLOUDY    63  63 100 N5        29.99S
PONTIAC        CLOUDY    62  59  90 NE5       30.00S
PORT HOPE        N/A     64  58  80 NE9       30.03F
PORT HURON     CLOUDY    66  63  88 N5        30.01S
TRI CITIES     MOCLDY    54  53  97 E6        30.04S
MIDLAND        FAIR      53  53  99 CALM      30.02S
TROY           CLOUDY    64  60  88 NE5       30.02S
SAGINAW HB     PTCLDY    52  50  93 CALM      30.03R
$$
MIZ043>046-050>051-056>058-064>065-071>073-077>080-191200-
SOUTHWEST LOWER MICHIGAN

CITY           SKY/WX    TMP DP  RH WIND       PRES   REMARKS
BATTLE CREEK   LGT RAIN  64  64 100 E6        29.99R FOG
BENTON HARBOR  LGT RAIN  66  64  93 E5        29.95S FOG
BIG RAPIDS     PTCLDY    55  52  90 CALM      30.04S
COLDWATER      DRIZZLE   65  65 100 SE3       29.99R
FREMONT        FAIR      59  55  86 E8        30.00F
HOLLAND        CLOUDY    64  62  93 E7        29.98S FOG
GRAND RAPIDS   CLOUDY    61  57  87 NE6       30.00R
IONIA          CLOUDY    59  53  79 NE5       30.01R
KALAMAZOO      LGT RAIN  67  63  87 SE3       29.99R FOG
LUDINGTON      CLOUDY    56  54  92 E6        30.01S
MARSHALL       CLOUDY    63  63  99 CALM      29.99R
MOUNT PLEASANT MOCLDY    54  53  97 NW3       30.04R
MUSKEGON       CLOUDY    63  58  83 E8        29.99R
SOUTH HAVEN    LGT RAIN  66  65  95 E7        29.97R
$$
MIZ016>042-191200-
NORTHERN LOWER MICHIGAN

CITY           SKY/WX    TMP DP  RH WIND       PRES   REMARKS
ALPENA         PTCLDY    49  49 100 CALM      30.08S
BEAVER ISLAND  CLOUDY    53  52  97 E3        30.06F
CADILLAC       PTCLDY    54  51  90 E7        30.05S
CHARLEVOIX     CLOUDY    57  52  84 CALM      30.09S
FRANKFORT      PTCLDY    58  55  90 E5        30.03R
GAYLORD        CLOUDY    50  46  86 CALM      30.08S
GRAYLING       PTCLDY    44  43  95 CALM      30.08F FOG
HARBOR SPRINGS CLOUDY    52  51  95 CALM      30.08R
HOUGHTON LAKE  CLOUDY    47  45  93 E5        30.07R
MANISTEE       MOCLDY    56  54  93 E5        30.02S
OSCODA         PTCLDY    47  47  98 NW7       30.04F
PELLSTON       CLOUDY    50  49  96 NW3       30.08S
ROGERS CITY    CLOUDY    51  50  96 CALM      30.08S
TRAVERSE CITY  MOCLDY    54  51  90 CALM      30.04S
$$
MIZ007>008-015-191200-
EASTERN UPPER MICHIGAN

CITY           SKY/WX    TMP DP  RH WIND       PRES   REMARKS
KINROSS        CLOUDY    54  49  83 E7        30.09S
MACKINAC ISLAN PTCLDY    59  54  83 E6        30.07S
NEWBERRY       CLOUDY    52  51  97 CALM      30.08S FOG
S. S. MARIE    PTCLDY    53  49  86 CALM      30.09R
MUNISING         N/A     57  50  77 VRB6      30.05F
$$
MIZ004>006-011>014-085-191200-
CENTRAL UPPER MICHIGAN

CITY           SKY/WX    TMP DP  RH WIND       PRES   REMARKS
MANISTIQUE     CLOUDY    53  47  81 N3        30.06S
ESCANABA       CLOUDY    58  53  84 E8        30.04S
MENOMINEE      CLOUDY    62  58  86 E9        30.02S
SAWYER-GWINN   CLOUDY    54  43  66 SE6       30.06S
$$
MIZ001>003-009>011-084-191200-
WESTERN UPPER MICHIGAN

CITY           SKY/WX    TMP DP  RH WIND       PRES   REMARKS
IRON MOUNTAIN  CLEAR     50  47  89 CALM      30.03S
HOUGHTON       CLOUDY    56  54  93 E8        30.03F
COPPER HARBOR    N/A     58  53  84 VRB3      30.04S
IRONWOOD       CLOUDY    57  49  74 SE8       30.00F
$$

ABBREVIATIONS USED IN REMARKS
   TC - TEMPERATURE IN CELSIUS
  WCI - WIND CHILL INDEX
   HX - HEAT INDEX
  VSB - VISIBILITY




USA.gov is the U.S. government's official web portal to all federal, state and local government web resources and services.